Princess Beatrix Arpt, Aruba

10:28 PM AST on December 04, 2016 (GMT -0400)
Oranjestad-Reina Beatrix International

Weather History for TNCA - June, 2013

Change the Weather History Date:

Wednesday, June 26, 2013

  Actual Average Record
Temperature  
Mean Temperature 86 °F -  
Max Temperature 91 °F 88 °F 93 °F (2010)
Min Temperature 80 °F 78 °F 68 °F (1999)
Cooling Degree Days 20    
Growing Degree Days 36 (Base 50)    
Moisture  
Dew Point 76 °F    
Average Humidity 74    
Maximum Humidity 84    
Minimum Humidity 55    
Precipitation  
Precipitation 0.00 in - - ()
Sea Level Pressure  
Sea Level Pressure 29.87 in    
Wind  
Wind Speed 18 mph ()    
Max Wind Speed 40 mph    
Max Gust Speed 33 mph    
Visibility 9.6 miles    
Events      
Averages and records for this station are not official NWS values.
T = Trace of Precipitation, MM = Missing Value Source: Averaged Metar Reports

Daily Weather History Graph

Daily Weather History Graph

Search for Another Location

Airport or City:

Trip Planner

Search our weather history database for the weather conditions in past years. The results will help you decide how hot, cold, wet, or windy it might be!

Date:

Astronomy

Jun. 26, 2013 Rise Set
Actual Time 6:17 AM AST 7:08 PM AST
Civil Twilight 5:53 AM AST 7:32 PM AST
Nautical Twilight 5:26 AM AST 7:59 PM AST
Astronomical Twilight 4:58 AM AST 8:27 PM AST
Moon 10:13 PM AST (6/26) 9:28 AM AST (6/26)
Length of Visible Light 13h 38m
Length of Day
12h 51m
Waning Gibbous, 85% of the Moon is Illuminated
Jun 26
Waning Gibbous
Jun 30
Last Quarter
Jul 8
New
Jul 15
First Quarter
Jul 22
Full

Hourly Weather History & Observations

Time (AST) Temp. Heat Index Dew Point Humidity Pressure Visibility Wind Dir Wind Speed Gust Speed Precip Events Conditions
12:00 AM 82.4 °F 89.5 °F 75.2 °F 79% 29.92 in 6.2 mi ENE 18.4 mph - N/A   Partly Cloudy
1:00 AM 82.4 °F 90.9 °F 77.0 °F 84% 29.89 in 6.2 mi ENE 17.3 mph - N/A   Scattered Clouds
2:00 AM 81 °F - 76 °F 80% 29.89 in 19 mi East 33.6 mph - -   Partly Cloudy
2:00 AM 80.6 °F 86.2 °F 75.2 °F 84% 29.89 in 6.2 mi East 17.3 mph - N/A   Scattered Clouds
3:00 AM 80.6 °F 86.2 °F 75.2 °F 84% 29.89 in 6.2 mi East 16.1 mph - N/A   Partly Cloudy
4:00 AM 80.6 °F 86.2 °F 75.2 °F 84% 29.89 in 6.2 mi East 17.3 mph - N/A   Partly Cloudy
5:00 AM 81 °F - 75 °F 77% 29.89 in 19 mi East 15.0 mph - -   Scattered Clouds
5:00 AM 80.6 °F 86.2 °F 75.2 °F 84% 29.89 in 6.2 mi East 15.0 mph - N/A   Partly Cloudy
6:00 AM 80.6 °F 86.2 °F 75.2 °F 84% 29.89 in 6.2 mi East 15.0 mph - N/A   Partly Cloudy
7:00 AM 80.6 °F 86.2 °F 75.2 °F 84% 29.89 in 6.2 mi East 12.7 mph - N/A   Partly Cloudy
8:00 AM 84 °F - 75 °F 67% 29.90 in 19 mi East 40.3 mph - -   Scattered Clouds
9:00 AM 86.0 °F 95.1 °F 75.2 °F 70% 29.89 in 6.2 mi East 19.6 mph - N/A   Partly Cloudy
10:00 AM 87.8 °F 97.6 °F 75.2 °F 66% 29.89 in 6.2 mi East 20.7 mph 33.4 mph N/A   Partly Cloudy
11:00 AM 89 °F - 76 °F 57% 29.91 in 19 mi East 19.6 mph - -  
11:00 AM 89.6 °F 99.8 °F 75.2 °F 62% 29.89 in 6.2 mi East 19.6 mph - N/A   Scattered Clouds
1:00 PM 91.4 °F 102.5 °F 75.2 °F 59% 29.89 in 6.2 mi East 20.7 mph - N/A   Scattered Clouds
2:00 PM 90 °F - 76 °F 55% 29.86 in 19 mi East 21.9 mph - -   Partly Cloudy
2:00 PM 89.6 °F 99.8 °F 75.2 °F 62% 29.86 in 6.2 mi East 21.9 mph - N/A   Scattered Clouds
3:00 PM 89.6 °F 102.2 °F 77.0 °F 66% 29.83 in 6.2 mi East 20.7 mph - N/A   Scattered Clouds
4:00 PM 89.6 °F 102.2 °F 77.0 °F 66% 29.83 in 6.2 mi ENE 19.6 mph - N/A   Partly Cloudy
5:00 PM 87 °F - 77 °F 64% 29.82 in 19 mi ENE 21.9 mph - -   Scattered Clouds
5:00 PM 87.8 °F 99.7 °F 77.0 °F 70% 29.80 in 6.2 mi ENE 21.9 mph - N/A   Partly Cloudy
6:00 PM 84.2 °F 94.1 °F 77.0 °F 79% 29.80 in 6.2 mi ENE 20.7 mph 33.4 mph N/A   Partly Cloudy
7:00 PM 84.2 °F 94.1 °F 77.0 °F 79% 29.83 in 6.2 mi ENE 19.6 mph - N/A   Partly Cloudy
8:00 PM 83 °F - 76 °F 74% 29.85 in 19 mi ENE 23.0 mph - -   Scattered Clouds
8:00 PM 82.4 °F 89.5 °F 75.2 °F 79% 29.83 in 6.2 mi ENE 23.0 mph - N/A   Partly Cloudy
9:00 PM 82.4 °F 89.5 °F 75.2 °F 79% 29.86 in 6.2 mi ENE 20.7 mph 32.2 mph N/A   Partly Cloudy
10:00 PM 82.4 °F 89.5 °F 75.2 °F 79% 29.89 in 6.2 mi ENE 19.6 mph 31.1 mph N/A   Partly Cloudy
11:00 PM 82 °F - 76 °F 78% 29.90 in 19 mi ENE 20.7 mph - -   Scattered Clouds
11:00 PM 82.4 °F 90.9 °F 77.0 °F 84% 29.89 in 6.2 mi ENE 20.7 mph - N/A   Partly Cloudy